This is the latest recevied weather packets stored in our database for station/object KC1DMA. If no packets are shown the sender has not sent any weather packets the latest 10 day(s).
| Time | Temp. | Humidity | Pressure | Rain* | Wind** | Luminosity | Snow |
|---|---|---|---|---|---|---|---|
| 1777943077 | 12.78° C | 69% | 1012.7 hPa | - | - | 0 W/m² | - |
| 1777942773 | 12.78° C | 68% | 1012.8 hPa | - | - | 0 W/m² | - |
| 1777942470 | 12.78° C | 68% | 1012.6 hPa | - | - | 0 W/m² | - |
| 1777942168 | 13.33° C | 67% | 1012.6 hPa | - | - | 0 W/m² | - |
| 1777941864 | 13.33° C | 67% | 1012.6 hPa | - | - | 0 W/m² | - |
| 1777941561 | 13.33° C | 66% | 1012.7 hPa | - | - | 0 W/m² | - |
| 1777941259 | 13.33° C | 66% | 1012.3 hPa | - | - | 0 W/m² | - |
| 1777940955 | 13.33° C | 65% | 1012.2 hPa | - | - | 0 W/m² | - |
| 1777940651 | 13.33° C | 65% | 1012 hPa | - | - | 0 W/m² | - |
| 1777940350 | 13.89° C | 65% | 1012.2 hPa | - | - | 0 W/m² | - |
| 1777940047 | 13.89° C | 63% | 1012 hPa | - | - | 0 W/m² | - |
| 1777939744 | 13.89° C | 63% | 1011.9 hPa | - | - | 0 W/m² | - |
| 1777939442 | 13.89° C | 62% | 1011.8 hPa | - | - | 1 W/m² | - |
| 1777939138 | 14.44° C | 62% | 1011.7 hPa | - | - | 2 W/m² | - |
| 1777938835 | 14.44° C | 61% | 1011.7 hPa | - | - | 3 W/m² | - |
| 1777938531 | 14.44° C | 60% | 1011.7 hPa | - | - | 5 W/m² | - |
| 1777938229 | 14.44° C | 60% | 1011.6 hPa | - | - | 7 W/m² | - |
| 1777937926 | 15° C | 59% | 1011.5 hPa | - | - | 11 W/m² | - |
| 1777937621 | 15° C | 58% | 1011.3 hPa | - | - | 14 W/m² | - |
| 1777937318 | 15.56° C | 57% | 1011.5 hPa | - | - | 20 W/m² | - |
| 1777937016 | 15.56° C | 57% | 1011.4 hPa | - | - | 23 W/m² | - |
| 1777936712 | 15.56° C | 56% | 1011 hPa | - | - | 27 W/m² | - |
| 1777936409 | 16.11° C | 56% | 1011.2 hPa | - | - | 33 W/m² | - |
| 1777936105 | 16.67° C | 54% | 1011 hPa | - | - | 39 W/m² | - |
| 1777935803 | 16.67° C | 54% | 1010.9 hPa | - | - | 46 W/m² | - |
* Rain since midnight (hover to see other rain measurements)
** Current wind speed in m/s (hover to see current wind gust speed)